Overview Statistics Trail Chart Weather Telemetry Raw packets
 

This is the latest recevied weather packets stored in our database for station/object N9DMT-13. If no packets are shown the sender has not sent any weather packets the latest 10 day(s).

<< 56 57 58 59 60 61 62 >>
Time Temp. Humidity Pressure Rain* Wind** Luminosity Snow
1777476040 11.67° C 53% 983.6 hPa 0 mm - - -
1777475739 11.67° C 48% 983.7 hPa 0 mm - - -
1777475438 11.67° C 47% 983.7 hPa 0 mm - - -
1777475138 11.67° C 53% 983.6 hPa 0 mm - - -
1777474837 11.67° C 50% 983.7 hPa 0 mm - - -
1777474537 11.67° C 52% 983.6 hPa 0 mm - - -
1777474236 11.67° C 49% 983.6 hPa 0 mm - - -
1777473935 11.67° C 49% 983.6 hPa 0 mm - - -
1777473634 11.11° C 48% 983.6 hPa 0 mm - - -
1777473334 10.56° C 50% 983.5 hPa 0 mm - - -
1777473033 10.56° C 50% 983.8 hPa 0 mm - - -
1777472732 11.11° C 55% 983.7 hPa 0 mm - - -
1777472431 10.56° C 52% 983.9 hPa 0 mm - - -
1777472130 10.56° C 55% 983.6 hPa 0 mm - - -
1777471829 10° C 54% 983.6 hPa 0 mm - - -
1777471528 10° C 55% 983.6 hPa 0 mm - - -
1777471228 10° C 59% 983.7 hPa 0 mm - - -
1777470927 10° C 58% 983.6 hPa 0 mm - - -
1777470627 10° C 60% 983.5 hPa 0 mm - - -
1777470326 9.44° C 60% 983.6 hPa 0 mm - - -
1777470025 9.44° C 60% 983.7 hPa 0 mm - - -
1777469724 8.89° C 66% 983.7 hPa 0 mm - - -
1777469424 8.89° C 66% 983.7 hPa 0 mm - - -
1777469123 8.89° C 65% 983.8 hPa 0 mm - - -
1777468822 8.89° C 69% 983.9 hPa 0 mm - - -

* Rain latest hour (hover to see other rain measurements)
** Current wind speed in m/s (hover to see current wind gust speed)